TimeEST,TemperatureF,Dew PointF,Humidity,Sea Level PressureIn,VisibilityMPH,Wind Direction,Wind SpeedMPH,Gust SpeedMPH,PrecipitationIn,Events,Conditions,WindDirDegrees,DateUTC
12:54 AM,61.0,51.1,70,30.05,8.0,SSW,8.1,-,N/A,,Clear,200,2013-01-30 05:54:00
1:54 AM,62.1,53.1,72,30.03,9.0,SSW,9.2,-,N/A,,Clear,200,2013-01-30 06:54:00
2:54 AM,63.0,53.1,70,30.02,8.0,SSW,11.5,-,N/A,,Scattered Clouds,210,2013-01-30 07:54:00
3:54 AM,62.1,54.0,75,30.00,8.0,SSW,15.0,21.9,N/A,,Clear,210,2013-01-30 08:54:00
4:54 AM,61.0,54.0,78,29.98,8.0,SSW,8.1,-,N/A,,Clear,210,2013-01-30 09:54:00
5:54 AM,61.0,55.0,81,29.98,7.0,SSW,11.5,-,N/A,,Clear,200,2013-01-30 10:54:00
6:54 AM,62.1,55.9,80,29.96,7.0,SSW,11.5,-,N/A,,Mostly Cloudy,200,2013-01-30 11:54:00
7:54 AM,63.0,57.0,81,29.96,6.0,SSW,8.1,-,N/A,,Haze,200,2013-01-30 12:54:00
8:26 AM,64.4,57.2,77,29.95,8.0,SSW,13.8,-,N/A,,Scattered Clouds,200,2013-01-30 13:26:00
8:54 AM,66.0,57.9,75,29.95,10.0,SSW,15.0,-,N/A,,Scattered Clouds,210,2013-01-30 13:54:00
9:01 AM,66.2,57.2,73,29.95,10.0,SSW,16.1,24.2,N/A,,Mostly Cloudy,210,2013-01-30 14:01:00
9:31 AM,69.8,59.0,68,29.94,10.0,SSW,16.1,25.3,N/A,,Scattered Clouds,210,2013-01-30 14:31:00
9:50 AM,69.8,59.0,68,29.93,10.0,SSW,16.1,26.5,N/A,,Mostly Cloudy,210,2013-01-30 14:50:00
9:54 AM,69.1,59.0,70,29.93,10.0,SSW,15.0,-,N/A,,Mostly Cloudy,210,2013-01-30 14:54:00
10:54 AM,72.0,57.9,61,29.90,10.0,SSW,20.7,26.5,N/A,,Partly Cloudy,210,2013-01-30 15:54:00
11:54 AM,73.9,57.9,57,29.85,10.0,SSW,20.7,29.9,N/A,,Clear,200,2013-01-30 16:54:00
12:54 PM,75.0,57.0,53,29.82,10.0,SSW,23.0,31.1,N/A,,Clear,210,2013-01-30 17:54:00
1:54 PM,75.0,57.0,53,29.76,10.0,SSW,20.7,27.6,N/A,,Overcast,200,2013-01-30 18:54:00
2:54 PM,75.9,57.0,52,29.74,10.0,South,18.4,26.5,N/A,,Mostly Cloudy,190,2013-01-30 19:54:00
3:54 PM,75.0,57.0,53,29.72,10.0,South,18.4,23.0,N/A,,Overcast,190,2013-01-30 20:54:00
4:54 PM,73.0,57.0,57,29.69,10.0,South,16.1,32.2,N/A,,Mostly Cloudy,190,2013-01-30 21:54:00
5:54 PM,72.0,57.9,61,29.69,10.0,South,19.6,26.5,N/A,,Mostly Cloudy,190,2013-01-30 22:54:00
6:54 PM,69.8,57.2,64,29.65,10.0,South,15.0,24.2,N/A,,Partly Cloudy,180,2013-01-30 23:54:00
7:54 PM,70.0,57.0,63,29.62,10.0,South,19.6,31.1,N/A,,Overcast,190,2013-01-31 00:54:00
8:54 PM,70.0,57.9,65,29.58,10.0,South,21.9,29.9,N/A,,Overcast,180,2013-01-31 01:54:00
9:29 PM,69.8,57.2,64,29.55,10.0,South,21.9,29.9,N/A,,Overcast,180,2013-01-31 02:29:00
9:54 PM,69.1,57.9,68,29.53,10.0,South,21.9,32.2,N/A,,Overcast,180,2013-01-31 02:54:00
10:54 PM,70.0,57.9,65,29.49,10.0,South,16.1,28.8,N/A,,Overcast,180,2013-01-31 03:54:00
11:24 PM,71.6,57.2,60,29.46,10.0,South,25.3,40.3,N/A,,Overcast,190,2013-01-31 04:24:00
11:54 PM,71.1,57.9,63,29.44,10.0,South,24.2,34.5,N/A,,Overcast,190,2013-01-31 04:54:00